CW6175 Weather Reports


Display with metric or nautical units.
time (UTC)temp
F
wind
direction
speed
MPH
gust
MPH
rain 1hr
in
rain 24hr
in
rain mn
in
humidity
%
barometer
mb
20240224062716 40 224 3.0 9.0 0.00 0.00 0.00 82 995.9
20240224062626 40 203 4.0 9.0 0.00 0.00 0.00 82 995.9
20240224055715 40 220 3.0 9.0 0.00 0.00 0.00 80 995.6
20240224055622 40 205 3.0 8.0 0.00 0.00 0.00 80 995.6
20240224054121 40 192 4.0 10.0 0.00 0.00 0.00 80 995.6
20240224052716 40 217 4.0 12.0 0.00 0.00 0.00 81 995.6
20240224052620 40 202 4.0 11.0 0.00 0.00 0.00 81 995.6
20240224045736 41 192 4.0 11.0 0.00 0.00 0.00 81 995.2
20240224045610 41 215 4.0 9.0 0.00 0.00 0.00 81 995.2
20240224044102 41 218 4.0 11.0 0.00 0.00 0.00 81 995.1
20240224042718 41 220 5.0 11.0 0.00 0.00 0.00 80 995.1
20240224042603 41 210 4.0 11.0 0.00 0.00 0.00 80 995.1
20240224041111 41 182 3.0 11.0 0.00 0.00 0.00 81 995.0
20240224035715 41 215 4.0 9.0 0.00 0.00 0.00 81 994.9
20240224035611 41 235 4.0 9.0 0.00 0.00 0.00 81 994.9
20240224034045 41 202 4.0 8.0 0.00 0.00 0.00 81 994.8
20240224032715 41 238 3.0 7.0 0.00 0.00 0.00 81 994.7
20240224032546 41 180 3.0 7.0 0.00 0.00 0.00 80 994.7
20240224031048 41 227 2.0 6.0 0.00 0.00 0.00 80 994.7
20240224025714 41 227 3.0 12.0 0.00 0.00 0.00 80 994.6
20240224024049 42 193 3.0 12.0 0.00 0.00 0.00 79 994.5
20240224022710 42 194 5.0 15.0 0.00 0.00 0.00 79 994.6
20240224021035 42 190 4.0 14.0 0.00 0.00 0.00 80 994.5
20240224015709 41 215 4.0 9.0 0.00 0.00 0.00 80 994.5
20240224015536 41 208 4.0 8.0 0.00 0.00 0.00 80 994.5
20240224014039 41 214 4.0 9.0 0.00 0.00 0.00 80 994.5
20240224012708 42 192 4.0 9.0 0.00 0.00 0.00 79 994.5
20240224012538 42 236 4.0 9.0 0.00 0.00 0.00 79 994.5
20240224011033 42 222 5.0 9.0 0.00 0.00 0.00 78 994.5
20240224005709 42 203 4.0 9.0 0.00 0.00 0.00 79 994.5
20240224005533 42 163 4.0 9.0 0.00 0.00 0.00 79 994.5
20240224004041 42 178 3.0 8.0 0.00 0.00 0.00 79 994.4
20240224002538 42 164 4.0 11.0 0.00 0.00 0.00 79 994.4
20240224001038 42 187 4.0 9.0 0.00 0.00 0.00 80 994.4
20240223235708 42 195 3.0 10.0 0.00 0.00 0.00 79 994.5
20240223235532 42 194 3.0 9.0 0.00 0.00 0.00 79 994.5
20240223234030 42 213 4.0 10.0 0.00 0.00 0.00 79 994.5
20240223232656 42 191 4.0 10.0 0.00 0.00 0.00 79 994.5
20240223232522 42 184 5.0 10.0 0.00 0.00 0.00 79 994.5
20240223231026 42 195 5.0 10.0 0.00 0.00 0.00 79 994.4
20240223225718 42 201 6.0 13.0 0.00 0.00 0.00 79 994.3
20240223225522 42 207 6.0 13.0 0.00 0.00 0.00 79 994.3
20240223224012 42 182 5.0 10.0 0.00 0.00 0.00 80 994.4
20240223222655 42 179 4.0 13.0 0.00 0.00 0.00 80 994.3
20240223222459 42 229 4.0 13.0 0.00 0.00 0.00 80 994.3
20240223215650 42 193 4.0 13.0 0.00 0.00 0.00 81 994.2
20240223215519 42 169 4.0 13.0 0.00 0.00 0.00 80 994.2
20240223213949 42 242 6.0 13.0 0.00 0.00 0.00 80 994.1
20240223212645 42 207 7.0 15.0 0.00 0.01 0.00 80 994.0
20240223210914 41 221 5.0 14.0 0.00 0.01 0.00 80 994.0
20240223205645 42 194 6.0 14.0 0.00 0.01 0.00 80 994.0
20240223203832 42 199 6.0 12.0 0.00 0.01 0.00 80 994.0
20240223202645 41 194 6.0 14.0 0.00 0.01 0.00 80 994.0
20240223202325 41 196 6.0 14.0 0.00 0.01 0.00 80 994.0
20240223200804 41 157 5.0 13.0 0.00 0.01 0.00 80 993.9
20240223195644 41 167 6.0 14.0 0.00 0.01 0.00 79 993.7
20240223195307 42 190 6.0 14.0 0.00 0.01 0.00 78 993.7
20240223193804 42 179 4.0 13.0 0.00 0.01 0.00 78 993.8
20240223192644 42 221 6.0 13.0 0.00 0.01 0.00 78 993.7
20240223192306 42 175 6.0 13.0 0.00 0.01 0.00 78 993.7
20240223190803 42 185 4.0 11.0 0.00 0.02 0.00 77 993.9
20240223185638 43 178 4.0 14.0 0.00 0.02 0.00 77 993.6
20240223185306 43 187 4.0 13.0 0.00 0.02 0.00 77 993.6
20240223183805 44 169 5.0 14.0 0.00 0.02 0.00 75 993.5
20240223182638 44 246 5.0 16.0 0.00 0.03 0.00 73 993.4
20240223182249 44 192 6.0 12.0 0.00 0.05 0.00 73 993.4
20240223180749 44 194 5.0 13.0 0.00 0.07 0.00 73 993.4
20240223175634 44 180 4.0 13.0 0.00 0.08 0.00 72 993.2
20240223175231 44 168 5.0 13.0 0.00 0.08 0.00 72 993.2
20240223173731 44 187 4.0 12.0 0.00 0.08 0.00 70 993.0
20240223172635 45 198 5.0 14.0 0.00 0.08 0.00 69 992.9
20240223172232 45 157 5.0 14.0 0.00 0.08 0.00 68 992.9
20240223170733 45 208 6.0 14.0 0.00 0.08 0.00 67 992.9
20240223165628 45 175 4.0 10.0 0.00 0.08 0.00 67 992.9
20240223163719 46 186 4.0 13.0 0.00 0.15 0.00 67 992.8
20240223162615 46 192 4.0 15.0 0.00 0.17 0.00 67 992.7
20240223162152 46 193 6.0 15.0 0.00 0.19 0.00 67 992.7
20240223160640 46 200 6.0 15.0 0.00 0.19 0.00 67 992.7
20240223155120 46 198 7.0 14.0 0.00 0.19 0.00 64 992.6
20240223153612 47 223 6.0 18.0 0.00 0.19 0.00 63 992.5
20240223152614 46 215 8.0 18.0 0.00 0.19 0.00 63 992.5
20240223152113 46 229 9.0 18.0 0.00 0.19 0.00 64 992.5
20240223150613 46 227 8.0 16.0 0.00 0.19 0.00 67 992.4
20240223145613 46 237 6.0 20.0 0.00 0.19 0.00 72 992.5
20240223143613 47 232 10.0 20.0 0.00 0.19 0.00 66 992.4
20240223142611 47 210 10.0 22.0 0.00 0.19 0.00 66 992.4
20240223142113 47 240 9.0 19.0 0.00 0.19 0.00 64 992.4
20240223140618 47 209 10.0 23.0 0.00 0.19 0.00 63 992.4
20240223135611 48 223 12.0 26.0 0.00 0.19 0.00 61 992.4
20240223135107 48 206 11.0 23.0 0.00 0.19 0.00 62 992.4
20240223133629 48 182 10.0 26.0 0.00 0.19 0.00 65 992.4
20240223132619 47 195 11.0 26.0 0.00 0.19 0.00 64 992.4
20240223132126 47 234 12.0 26.0 0.00 0.19 0.00 61 992.4
20240223130611 47 244 13.0 26.0 0.00 0.19 0.00 63 992.5
20240223125612 47 266 11.0 27.0 0.00 0.19 0.00 62 992.5
20240223125116 47 221 11.0 27.0 0.00 0.19 0.00 63 992.5
20240223122611 46 269 9.0 22.0 0.00 0.19 0.00 66 992.5
20240223122052 46 257 10.0 22.0 0.00 0.19 0.00 66 992.5
20240223120543 45 231 7.0 20.0 0.00 0.19 0.00 68 992.6
20240223115557 45 238 10.0 22.0 0.00 0.19 0.00 68 992.7
20240223113540 45 271 11.0 20.0 0.00 0.19 0.00 68 992.6
20240223112558 45 228 10.0 25.0 0.00 0.19 0.00 67 992.7
20240223112041 45 260 12.0 22.0 0.00 0.19 0.00 67 992.7
20240223110540 45 229 12.0 25.0 0.00 0.19 0.00 66 992.5
20240223105554 45 223 11.0 25.0 0.00 0.19 0.00 67 992.5
20240223103542 45 217 10.0 23.0 0.00 0.19 0.00 68 992.3
20240223102555 45 223 10.0 25.0 0.00 0.19 0.00 68 992.0
20240223100532 45 211 12.0 23.0 0.00 0.19 0.00 67 992.0
20240223095555 44 273 12.0 34.0 0.00 0.19 0.00 67 991.9
20240223095030 44 223 12.0 34.0 0.00 0.19 0.00 69 991.9
20240223093528 44 215 11.0 22.0 0.00 0.19 0.00 67 991.7
20240223092556 44 252 12.0 29.0 0.00 0.19 0.00 69 991.8
20240223092033 44 209 12.0 29.0 0.00 0.19 0.00 68 991.8
20240223090531 44 238 11.0 27.0 0.00 0.19 0.00 71 991.9
20240223085601 43 219 12.0 24.0 0.00 0.19 0.00 71 991.7
20240223085037 43 254 12.0 23.0 0.00 0.19 0.00 70 991.7
20240223083524 43 189 11.0 24.0 0.00 0.19 0.00 72 991.9
20240223082659 42 213 12.0 24.0 0.00 0.19 0.00 73 991.7
20240223080510 42 214 11.0 21.0 0.00 0.19 0.00 77 991.7
20240223075518 41 229 11.0 25.0 0.00 0.19 0.00 77 991.5
20240223075022 41 213 12.0 25.0 0.00 0.19 0.00 78 991.5
20240223073507 41 217 11.0 22.0 0.00 0.19 0.00 77 991.5
20240223072519 41 236 11.0 22.0 0.00 0.19 0.00 77 991.4
20240223065512 41 246 10.0 22.0 0.00 0.19 0.00 76 991.4
20240223065005 41 207 10.0 20.0 0.00 0.19 0.00 76 991.4